START_TIME,STEP,MOV.,H8,t_acc.,H43,t_acc.,M25,t_acc.,H9,t_acc.
1981-08-30 15:00:30.030 ,1,0,0.,12.0,0.,12.0,0.,12.0,0.,12.0
1981-08-30 15:00:42.030 ,1,0,0.,12.0,0.,12.0,0.,12.0,0.,12.0
1981-08-30 15:00:54.030 ,0,0,0.,12.0,0.,12.0,0.,12.0,0.,12.0
1981-08-30 15:01:06.030 ,0,0,0.,12.0,0.,12.0,0.,12.0,0.,12.0
1981-08-30 15:01:18.030 ,0,0,0.,12.0,0.,12.0,0.,12.0,0.,12.0
1981-08-30 15:01:30.030 ,0,0,0.,12.0,0.,12.0,0.,12.0,0.,12.0
1981-08-30 15:01:42.030 ,0,0,0.,12.0,0.,12.0,0.,12.0,0.,12.0
1981-08-30 15:01:54.030 ,0,0,0.,12.0,0.,12.0,0.,12.0,0.,12.0
1981-08-30 15:02:06.030 ,0,0,0.,12.0,0.,12.0,0.,12.0,0.,12.0
1981-08-30 15:02:18.030 ,0,0,0.,12.0,0.,12.0,0.,12.0,0.,12.0
1981-08-30 15:02:30.020 ,1,0,0.,12.0,0.,12.0,0.,12.0,0.,12.0
1981-08-30 15:02:42.030 ,1,0,0.,12.0,0.,12.0,0.,12.0,0.,12.0
1981-08-30 15:02:54.020 ,1,0,0.,12.0,0.,12.0,0.,12.0,0.,12.0
1981-08-30 15:03:06.020 ,1,0,0.,12.0,0.,12.0,0.,12.0,0.,12.0
1981-08-30 15:03:18.020 ,2,0,0.,12.0,0.,12.0,0.,12.0,0.,12.0
1981-08-30 15:03:30.030 ,2,0,0.,12.0,0.,12.0,0.,12.0,0.,12.0
1981-08-30 15:03:42.020 ,2,0,0.,12.0,0.,12.0,0.,12.0,0.,12.0
1981-08-30 15:03:54.030 ,2,0,0.,12.0,0.,12.0,0.,12.0,0.,12.0
1981-08-30 15:04:06.020 ,3,0,0.,12.0,0.,12.0,0.,12.0,0.,12.0
1981-08-30 15:04:18.020 ,3,0,0.,12.0,0.,12.0,0.,12.0,0.,12.0
1981-08-30 15:04:30.020 ,4,0,0.,12.0,0.,12.0,0.,12.0,0.,12.0
1981-08-30 15:04:42.020 ,4,0,0.,12.0,0.,12.0,0.,12.0,0.,12.0
1981-08-30 15:04:54.020 ,5,0,0.,12.0,0.,12.0,0.,12.0,0.,12.0
1981-08-30 15:05:06.020 ,5,0,0.,12.0,0.,12.0,0.,12.0,0.,12.0
1981-08-30 15:05:18.020 ,6,0,0.,12.0,0.,12.0,0.,12.0,0.,12.0
1981-08-30 15:05:30.020 ,6,0,0.,12.0,0.,12.0,0.,12.0,0.,12.0
1981-08-30 15:05:42.020 ,7,0,0.,12.0,0.,12.0,0.,12.0,0.,12.0
1981-08-30 15:05:54.020 ,7,0,0.,12.0,0.,12.0,0.,12.0,0.,12.0
1981-08-30 15:06:06.020 ,7,0,0.,12.0,0.,12.0,0.,12.0,0.,12.0
1981-08-30 15:06:18.020 ,7,0,0.,12.0,0.,12.0,0.,12.0,0.,12.0
1981-08-30 15:06:30.020 ,6,0,0.,12.0,0.,12.0,0.,12.0,0.,12.0
1981-08-30 15:06:42.020 ,6,0,0.,12.0,0.,12.0,0.,12.0,0.,12.0
1981-08-30 15:06:54.020 ,5,0,0.,12.0,0.,12.0,0.,12.0,0.,12.0
1981-08-30 15:07:06.020 ,5,0,0.,12.0,0.,12.0,0.,12.0,0.,12.0
1981-08-30 15:07:18.020 ,4,0,0.,12.0,0.,12.0,0.,12.0,0.,12.0
1981-08-30 15:07:30.020 ,4,0,0.,12.0,0.,12.0,0.,12.0,0.,12.0
1981-08-30 15:07:42.020 ,3,0,0.,12.0,0.,12.0,0.,12.0,0.,12.0
1981-08-30 15:07:54.020 ,3,0,0.,12.0,0.,12.0,0.,12.0,0.,12.0
1981-08-30 15:08:06.020 ,2,0,0.,12.0,0.,12.0,0.,12.0,0.,12.0
1981-08-30 15:08:18.020 ,2,0,0.,12.0,0.,12.0,0.,12.0,0.,12.0
1981-08-30 15:08:30.020 ,1,0,0.,12.0,0.,12.0,0.,12.0,0.,12.0
1981-08-30 15:08:42.020 ,1,0,0.,12.0,0.,12.0,0.,12.0,0.,12.0
1981-08-30 15:08:54.020 ,0,0,0.,12.0,0.,12.0,0.,12.0,0.,12.0
1981-08-30 15:09:06.020 ,0,0,0.,12.0,0.,12.0,0.,12.0,0.,12.0
1981-08-30 15:09:18.020 ,0,0,0.,12.0,0.,12.0,0.,12.0,0.,12.0
1981-08-30 15:09:30.020 ,0,0,0.,12.0,0.,12.0,0.,12.0,0.,12.0
1981-08-30 15:09:42.020 ,1,0,0.,12.0,0.,12.0,0.,12.0,0.,12.0
1981-08-30 15:09:54.020 ,1,0,0.,12.0,0.,12.0,0.,12.0,0.,12.0
1981-08-30 15:10:06.020 ,2,0,0.,12.0,0.,12.0,0.,12.0,0.,12.0
1981-08-30 15:10:18.020 ,2,0,0.,12.0,0.,12.0,0.,12.0,0.,12.0
1981-08-30 15:10:30.020 ,3,0,0.,12.0,0.,12.0,0.,12.0,0.,12.0
1981-08-30 15:10:42.020 ,3,0,0.,12.0,0.,12.0,0.,12.0,0.,12.0
1981-08-30 15:10:54.020 ,3,0,0.,12.0,0.,12.0,0.,12.0,0.,12.0
1981-08-30 15:11:06.020 ,3,0,0.,12.0,0.,12.0,0.,12.0,0.,12.0
1981-08-30 15:11:18.020 ,4,0,0.,12.0,0.,12.0,0.,12.0,0.,12.0
1981-08-30 15:11:30.020 ,4,0,0.,12.0,0.,12.0,0.,12.0,0.,12.0
1981-08-30 15:11:42.020 ,4,0,0.,12.0,0.,12.0,0.,12.0,0.,12.0
1981-08-30 15:11:54.020 ,4,0,0.,12.0,0.,12.0,0.,12.0,0.,12.0
1981-08-30 15:12:06.020 ,5,0,0.,12.0,0.,12.0,0.,12.0,0.,12.0
1981-08-30 15:12:18.020 ,5,0,0.,12.0,0.,12.0,0.,12.0,0.,12.0
1981-08-30 15:12:30.020 ,5,0,0.,12.0,0.,12.0,0.,12.0,0.,12.0
1981-08-30 15:12:42.020 ,5,0,0.,12.0,0.,12.0,0.,12.0,0.,12.0
1981-08-30 15:12:54.020 ,6,0,0.,12.0,0.,12.0,0.,12.0,0.,12.0
1981-08-30 15:13:06.020 ,6,0,0.,12.0,0.,12.0,0.,12.0,0.,12.0
1981-08-30 15:13:18.020 ,6,0,0.,12.0,0.,12.0,0.,12.0,0.,12.0
1981-08-30 15:13:30.020 ,6,0,0.,12.0,0.,12.0,0.,12.0,0.,12.0
1981-08-30 15:13:42.020 ,7,0,0.,12.0,0.,12.0,0.,12.0,0.,12.0
1981-08-30 15:13:54.020 ,7,0,0.,12.0,0.,12.0,0.,12.0,0.,12.0
1981-08-30 15:14:06.020 ,7,0,0.,12.0,0.,12.0,0.,12.0,0.,12.0
1981-08-30 15:14:18.020 ,7,0,0.,12.0,0.,12.0,0.,12.0,0.,12.0
1981-08-30 15:14:30.020 ,7,0,0.,12.0,0.,12.0,0.,12.0,0.,12.0
1981-08-30 15:14:42.020 ,7,0,0.,12.0,0.,12.0,0.,12.0,0.,12.0
1981-08-30 15:14:54.020 ,7,0,0.,12.0,0.,12.0,0.,12.0,0.,12.0
1981-08-30 15:15:06.020 ,7,0,0.,12.0,0.,12.0,0.,12.0,0.,12.0
1981-08-30 15:15:18.020 ,6,0,0.,12.0,0.,12.0,0.,12.0,0.,12.0
1981-08-30 15:15:30.020 ,6,0,0.,12.0,0.,12.0,0.,12.0,0.,12.0
1981-08-30 15:15:42.020 ,6,0,0.,12.0,0.,12.0,0.,12.0,0.,12.0
1981-08-30 15:15:54.020 ,6,0,0.,12.0,0.,12.0,0.,12.0,0.,12.0
1981-08-30 15:16:06.020 ,5,0,0.,12.0,0.,12.0,0.,12.0,0.,12.0
1981-08-30 15:16:18.020 ,5,0,0.,12.0,0.,12.0,0.,12.0,0.,12.0
1981-08-30 15:16:30.020 ,5,0,0.,12.0,0.,12.0,0.,12.0,0.,12.0
1981-08-30 15:16:42.020 ,5,0,0.,12.0,0.,12.0,0.,12.0,0.,12.0
1981-08-30 15:16:54.020 ,4,0,0.,12.0,0.,12.0,0.,12.0,0.,12.0
1981-08-30 15:17:06.020 ,4,0,0.,12.0,0.,12.0,0.,12.0,0.,12.0
1981-08-30 15:17:18.020 ,4,0,0.,12.0,0.,12.0,0.,12.0,0.,12.0
1981-08-30 15:17:30.020 ,4,0,0.,12.0,0.,12.0,0.,12.0,0.,12.0
1981-08-30 15:17:42.020 ,3,0,0.,12.0,0.,12.0,0.,12.0,0.,12.0
1981-08-30 15:17:54.020 ,3,0,0.,12.0,0.,12.0,0.,12.0,0.,12.0
1981-08-30 15:18:06.020 ,3,0,0.,12.0,0.,12.0,0.,12.0,0.,12.0
1981-08-30 15:18:18.020 ,3,0,0.,12.0,0.,12.0,0.,12.0,0.,12.0
1981-08-30 15:18:30.020 ,2,0,0.,12.0,0.,12.0,0.,12.0,0.,12.0
1981-08-30 15:18:42.020 ,2,0,0.,12.0,0.,12.0,0.,12.0,0.,12.0
1981-08-30 15:18:54.020 ,2,0,0.,12.0,0.,12.0,0.,12.0,0.,12.0
1981-08-30 15:19:06.020 ,2,0,0.,12.0,0.,12.0,0.,12.0,0.,12.0
1981-08-30 15:19:18.020 ,1,0,0.,12.0,0.,12.0,0.,12.0,0.,12.0
1981-08-30 15:19:30.020 ,1,0,0.,12.0,0.,12.0,0.,12.0,0.,12.0
1981-08-30 15:19:42.020 ,1,0,0.,12.0,0.,12.0,0.,12.0,0.,12.0
1981-08-30 15:19:54.020 ,1,0,0.,12.0,0.,12.0,0.,12.0,0.,12.0
1981-08-30 15:20:06.020 ,0,0,0.,12.0,0.,12.0,0.,12.0,0.,12.0
1981-08-30 15:20:18.020 ,0,0,0.,12.0,0.,12.0,0.,12.0,0.,12.0
1981-08-30 15:20:30.020 ,0,0,0.,12.0,0.,12.0,0.,12.0,0.,12.0
1981-08-30 15:20:42.020 ,0,0,0.,12.0,0.,12.0,0.,12.0,0.,12.0
1981-08-30 15:20:54.020 ,0,0,0.,12.0,0.,12.0,0.,12.0,0.,12.0
1981-08-30 15:21:06.020 ,0,0,0.,12.0,0.,12.0,0.,12.0,0.,12.0
1981-08-30 15:21:18.020 ,0,0,0.,12.0,0.,12.0,0.,12.0,0.,12.0
1981-08-30 15:21:30.020 ,0,0,0.,12.0,0.,12.0,0.,12.0,0.,12.0
1981-08-30 15:21:42.020 ,1,0,0.,12.0,0.,12.0,0.,12.0,0.,12.0
1981-08-30 15:21:54.020 ,1,0,0.,12.0,0.,12.0,0.,12.0,0.,12.0
1981-08-30 15:22:06.020 ,1,0,0.,12.0,0.,12.0,0.,12.0,0.,12.0
1981-08-30 15:22:18.020 ,1,0,0.,12.0,0.,12.0,0.,12.0,0.,12.0
1981-08-30 15:22:30.020 ,2,0,0.,12.0,0.,12.0,0.,12.0,0.,12.0
1981-08-30 15:22:42.020 ,2,0,0.,12.0,0.,12.0,0.,12.0,0.,12.0
1981-08-30 15:22:54.020 ,2,0,0.,12.0,0.,12.0,0.,12.0,0.,12.0
1981-08-30 15:23:06.020 ,2,0,0.,12.0,0.,12.0,0.,12.0,0.,12.0
1981-08-30 15:23:18.020 ,3,0,0.,12.0,0.,12.0,0.,12.0,0.,12.0
1981-08-30 15:23:30.020 ,3,0,0.,12.0,0.,12.0,0.,12.0,0.,12.0
1981-08-30 15:23:42.020 ,4,0,0.,12.0,0.,12.0,0.,12.0,0.,12.0
1981-08-30 15:23:54.020 ,4,0,0.,12.0,0.,12.0,0.,12.0,0.,12.0
1981-08-30 15:24:06.020 ,5,0,0.,12.0,0.,12.0,0.,12.0,0.,12.0
1981-08-30 15:24:18.020 ,5,0,0.,12.0,0.,12.0,0.,12.0,0.,12.0
1981-08-30 15:24:30.020 ,6,0,0.,12.0,0.,12.0,0.,12.0,0.,12.0
1981-08-30 15:24:42.020 ,6,0,0.,12.0,0.,12.0,0.,12.0,0.,12.0
1981-08-30 15:24:54.020 ,7,0,0.,12.0,0.,12.0,0.,12.0,0.,12.0
1981-08-30 15:25:06.020 ,7,0,0.,12.0,0.,12.0,0.,12.0,0.,12.0
1981-08-30 15:25:18.020 ,7,0,0.,12.0,0.,12.0,0.,12.0,0.,12.0
1981-08-30 15:25:30.020 ,7,0,0.,12.0,0.,12.0,0.,12.0,0.,12.0
1981-08-30 15:25:42.020 ,6,0,0.,12.0,0.,12.0,0.,12.0,0.,12.0
1981-08-30 15:25:54.020 ,6,0,0.,12.0,0.,12.0,0.,12.0,0.,12.0
1981-08-30 15:26:06.020 ,5,0,0.,12.0,0.,12.0,0.,12.0,0.,12.0
1981-08-30 15:26:18.020 ,5,0,0.,12.0,0.,12.0,0.,12.0,0.,12.0
1981-08-30 15:26:30.020 ,4,0,0.,12.0,0.,12.0,0.,12.0,0.,12.0
1981-08-30 15:26:42.020 ,4,0,0.,12.0,0.,12.0,0.,12.0,0.,12.0
1981-08-30 15:26:54.020 ,3,0,0.,12.0,0.,12.0,0.,12.0,0.,12.0
1981-08-30 15:27:06.020 ,3,0,0.,12.0,0.,12.0,0.,12.0,0.,12.0
1981-08-30 15:27:18.020 ,2,0,0.,12.0,0.,12.0,0.,12.0,0.,12.0
1981-08-30 15:27:30.020 ,2,0,0.,12.0,0.,12.0,0.,12.0,0.,12.0
1981-08-30 15:27:42.020 ,1,0,0.,12.0,0.,12.0,0.,12.0,0.,12.0
1981-08-30 15:27:54.020 ,1,0,0.,12.0,0.,12.0,0.,12.0,0.,12.0
1981-08-30 15:28:06.020 ,0,0,0.,12.0,0.,12.0,0.,12.0,0.,12.0
1981-08-30 15:28:18.020 ,0,0,0.,12.0,0.,12.0,0.,12.0,0.,12.0
1981-08-30 15:28:30.020 ,0,0,0.,12.0,0.,12.0,0.,12.0,0.,12.0
1981-08-30 15:28:42.020 ,0,0,0.,12.0,0.,12.0,0.,12.0,0.,12.0
1981-08-30 15:28:54.020 ,1,0,0.,12.0,0.,12.0,0.,12.0,0.,12.0
1981-08-30 15:29:06.020 ,1,0,0.,12.0,0.,12.0,0.,12.0,0.,12.0
1981-08-30 15:29:18.020 ,2,0,0.,12.0,0.,12.0,0.,12.0,0.,12.0
1981-08-30 15:29:30.020 ,2,0,0.,12.0,0.,12.0,0.,12.0,0.,12.0
1981-08-30 15:29:42.020 ,3,0,0.,12.0,0.,12.0,0.,12.0,0.,12.0
1981-08-30 15:29:54.020 ,3,0,0.,12.0,0.,12.0,0.,12.0,0.,12.0
1981-08-30 15:30:06.020 ,3,0,0.,12.0,0.,12.0,0.,12.0,0.,12.0
1981-08-30 15:30:18.020 ,3,0,0.,12.0,0.,12.0,0.,12.0,0.,12.0
1981-08-30 15:30:30.020 ,4,0,0.,12.0,0.,12.0,0.,12.0,0.,12.0
1981-08-30 15:30:42.020 ,4,0,0.,12.0,0.,12.0,0.,12.0,0.,12.0
1981-08-30 15:30:54.020 ,4,0,0.,12.0,0.,12.0,0.,12.0,0.,12.0
1981-08-30 15:31:06.020 ,4,0,0.,12.0,0.,12.0,0.,12.0,0.,12.0
1981-08-30 15:31:18.020 ,5,0,0.,12.0,0.,12.0,0.,12.0,0.,12.0
1981-08-30 15:31:30.020 ,5,0,0.,12.0,0.,12.0,0.,12.0,0.,12.0
1981-08-30 15:31:42.020 ,5,0,0.,12.0,0.,12.0,0.,12.0,0.,12.0
1981-08-30 15:31:54.020 ,5,0,0.,12.0,0.,12.0,0.,12.0,0.,12.0
1981-08-30 15:32:06.020 ,6,0,0.,12.0,0.,12.0,0.,12.0,0.,12.0
1981-08-30 15:32:18.020 ,6,0,0.,12.0,0.,12.0,0.,12.0,0.,12.0
1981-08-30 15:32:30.020 ,6,0,0.,12.0,0.,12.0,0.,12.0,0.,12.0
1981-08-30 15:32:42.020 ,6,0,0.,12.0,0.,12.0,0.,12.0,0.,12.0
1981-08-30 15:32:54.020 ,7,0,0.,12.0,0.,12.0,0.,12.0,0.,12.0
1981-08-30 15:33:06.020 ,7,0,0.,12.0,0.,12.0,0.,12.0,0.,12.0
1981-08-30 15:33:18.020 ,7,0,0.,12.0,0.,12.0,0.,12.0,0.,12.0
1981-08-30 15:33:30.020 ,7,0,0.,12.0,0.,12.0,0.,12.0,0.,12.0
1981-08-30 15:33:42.020 ,7,0,0.,12.0,0.,12.0,0.,12.0,0.,12.0
1981-08-30 15:33:54.020 ,7,0,0.,12.0,0.,12.0,0.,12.0,0.,12.0
1981-08-30 15:34:06.020 ,7,0,0.,12.0,0.,12.0,0.,12.0,0.,12.0
1981-08-30 15:34:18.020 ,7,0,0.,12.0,0.,12.0,0.,12.0,0.,12.0
1981-08-30 15:34:30.020 ,6,0,0.,12.0,0.,12.0,0.,12.0,0.,12.0
1981-08-30 15:34:42.020 ,6,0,0.,12.0,0.,12.0,0.,12.0,0.,12.0
1981-08-30 15:34:54.020 ,6,0,0.,12.0,0.,12.0,0.,12.0,0.,12.0
1981-08-30 15:35:06.020 ,6,0,0.,12.0,0.,12.0,0.,12.0,0.,12.0
1981-08-30 15:35:18.020 ,5,0,0.,12.0,0.,12.0,0.,12.0,0.,12.0
1981-08-30 15:35:30.020 ,5,0,0.,12.0,0.,12.0,0.,12.0,0.,12.0
1981-08-30 15:35:42.020 ,5,0,0.,12.0,0.,12.0,0.,12.0,0.,12.0
1981-08-30 15:35:54.020 ,5,0,0.,12.0,0.,12.0,0.,12.0,0.,12.0
1981-08-30 15:36:06.020 ,4,0,0.,12.0,0.,12.0,0.,12.0,0.,12.0
1981-08-30 15:36:18.020 ,4,0,0.,12.0,0.,12.0,0.,12.0,0.,12.0
1981-08-30 15:36:30.020 ,4,0,0.,12.0,0.,12.0,0.,12.0,0.,12.0
1981-08-30 15:36:42.020 ,4,0,0.,12.0,0.,12.0,0.,12.0,0.,12.0
1981-08-30 15:36:54.020 ,3,0,0.,12.0,0.,12.0,0.,12.0,0.,12.0
1981-08-30 15:37:06.020 ,3,0,0.,12.0,0.,12.0,0.,12.0,0.,12.0
1981-08-30 15:37:18.020 ,3,0,0.,12.0,0.,12.0,0.,12.0,0.,12.0
1981-08-30 15:37:30.020 ,3,0,0.,12.0,0.,12.0,0.,12.0,0.,12.0
1981-08-30 15:37:42.020 ,2,0,0.,12.0,0.,12.0,0.,12.0,0.,12.0
1981-08-30 15:37:54.020 ,2,0,0.,12.0,0.,12.0,0.,12.0,0.,12.0
1981-08-30 15:38:06.020 ,2,0,0.,12.0,0.,12.0,0.,12.0,0.,12.0
1981-08-30 15:38:18.020 ,2,0,0.,12.0,0.,12.0,0.,12.0,0.,12.0
1981-08-30 15:38:30.020 ,1,0,0.,12.0,0.,12.0,0.,12.0,0.,12.0
1981-08-30 15:38:42.020 ,1,0,0.,12.0,0.,12.0,0.,12.0,0.,12.0
1981-08-30 15:38:54.020 ,1,0,0.,12.0,0.,12.0,0.,12.0,0.,12.0
1981-08-30 15:39:06.020 ,1,0,0.,12.0,0.,12.0,0.,12.0,0.,12.0
1981-08-30 15:39:18.020 ,0,0,0.,12.0,0.,12.0,0.,12.0,0.,12.0
1981-08-30 15:39:30.020 ,0,0,0.,12.0,0.,12.0,0.,12.0,0.,12.0
1981-08-30 15:39:42.020 ,0,0,0.,12.0,0.,12.0,0.,12.0,0.,12.0
1981-08-30 15:39:54.020 ,0,0,0.,12.0,0.,12.0,0.,12.0,0.,12.0
1981-08-30 15:40:06.020 ,0,0,0.,12.0,0.,12.0,0.,12.0,0.,12.0
1981-08-30 15:40:18.020 ,0,0,0.,12.0,0.,12.0,0.,12.0,0.,12.0
1981-08-30 15:40:30.020 ,0,0,0.,12.0,0.,12.0,0.,12.0,0.,12.0
1981-08-30 15:40:42.020 ,0,0,0.,12.0,0.,12.0,0.,12.0,0.,12.0
1981-08-30 15:40:54.020 ,1,0,0.,12.0,0.,12.0,0.,12.0,0.,12.0
1981-08-30 15:41:06.020 ,1,0,0.,12.0,0.,12.0,0.,12.0,0.,12.0
1981-08-30 15:41:18.020 ,1,0,0.,12.0,0.,12.0,0.,12.0,0.,12.0
1981-08-30 15:41:30.020 ,1,0,0.,12.0,0.,12.0,0.,12.0,0.,12.0
1981-08-30 15:41:42.020 ,2,0,0.,12.0,0.,12.0,0.,12.0,0.,12.0
1981-08-30 15:41:54.020 ,2,0,0.,12.0,0.,12.0,0.,12.0,0.,12.0
1981-08-30 15:42:06.020 ,2,0,0.,12.0,0.,12.0,0.,12.0,0.,12.0
1981-08-30 15:42:18.020 ,2,0,0.,12.0,0.,12.0,0.,12.0,0.,12.0
1981-08-30 15:42:30.020 ,3,0,0.,12.0,0.,12.0,0.,12.0,0.,12.0
1981-08-30 15:42:42.020 ,3,0,0.,12.0,0.,12.0,0.,12.0,0.,12.0
1981-08-30 15:42:54.020 ,4,0,0.,12.0,0.,12.0,0.,12.0,0.,12.0
1981-08-30 15:43:06.020 ,4,0,0.,12.0,0.,12.0,0.,12.0,0.,12.0
1981-08-30 15:43:18.020 ,5,0,0.,12.0,0.,12.0,0.,12.0,0.,12.0
1981-08-30 15:43:30.020 ,5,0,0.,12.0,0.,12.0,0.,12.0,0.,12.0
1981-08-30 15:43:42.020 ,6,0,0.,12.0,0.,12.0,0.,12.0,0.,12.0
1981-08-30 15:43:54.020 ,6,0,0.,12.0,0.,12.0,0.,12.0,0.,12.0
1981-08-30 15:44:06.020 ,7,0,0.,12.0,0.,12.0,0.,12.0,0.,12.0
1981-08-30 15:44:18.020 ,7,0,0.,12.0,0.,12.0,0.,12.0,0.,12.0
1981-08-30 15:44:30.020 ,7,0,0.,12.0,0.,12.0,0.,12.0,0.,12.0
1981-08-30 15:44:42.020 ,7,0,0.,12.0,0.,12.0,0.,12.0,0.,12.0
1981-08-30 15:44:54.020 ,6,0,0.,12.0,0.,12.0,0.,12.0,0.,12.0
1981-08-30 15:45:06.020 ,6,0,0.,12.0,0.,12.0,0.,12.0,0.,12.0
1981-08-30 15:45:18.020 ,5,0,0.,12.0,0.,12.0,0.,12.0,0.,12.0
1981-08-30 15:45:30.020 ,5,0,0.,12.0,0.,12.0,0.,12.0,0.,12.0
1981-08-30 15:45:42.020 ,4,0,0.,12.0,0.,12.0,0.,12.0,0.,12.0
1981-08-30 15:45:54.020 ,4,0,0.,12.0,0.,12.0,0.,12.0,0.,12.0
1981-08-30 15:46:06.020 ,3,0,0.,12.0,0.,12.0,0.,12.0,0.,12.0
1981-08-30 15:46:18.020 ,3,0,0.,12.0,0.,12.0,0.,12.0,0.,12.0
1981-08-30 15:46:30.020 ,2,0,0.,12.0,0.,12.0,0.,12.0,0.,12.0
1981-08-30 15:46:42.020 ,2,0,0.,12.0,0.,12.0,0.,12.0,0.,12.0
1981-08-30 15:46:54.020 ,1,0,0.,12.0,0.,12.0,0.,12.0,0.,12.0
1981-08-30 15:47:06.020 ,1,0,0.,12.0,0.,12.0,0.,12.0,0.,12.0
1981-08-30 15:47:18.020 ,0,0,0.,12.0,0.,12.0,0.,12.0,0.,12.0
1981-08-30 15:47:30.020 ,0,0,0.,12.0,0.,12.0,0.,12.0,0.,12.0
1981-08-30 15:47:42.020 ,0,0,0.,12.0,0.,12.0,0.,12.0,0.,12.0
1981-08-30 15:47:54.020 ,0,0,0.,12.0,0.,12.0,0.,12.0,0.,12.0
1981-08-30 15:48:06.020 ,1,0,0.,12.0,0.,12.0,0.,12.0,0.,12.0
1981-08-30 15:48:18.020 ,1,0,0.,12.0,0.,12.0,0.,12.0,0.,12.0
1981-08-30 15:48:30.020 ,2,0,0.,12.0,0.,12.0,0.,12.0,0.,12.0
1981-08-30 15:48:42.020 ,2,0,0.,12.0,0.,12.0,0.,12.0,0.,12.0
1981-08-30 15:48:54.020 ,3,0,0.,12.0,0.,12.0,0.,12.0,0.,12.0
1981-08-30 15:49:06.020 ,3,0,0.,12.0,0.,12.0,0.,12.0,0.,12.0
1981-08-30 15:49:18.020 ,3,0,0.,12.0,0.,12.0,0.,12.0,0.,12.0
1981-08-30 15:49:30.020 ,3,0,0.,12.0,0.,12.0,0.,12.0,0.,12.0
1981-08-30 15:49:42.020 ,4,0,0.,12.0,0.,12.0,0.,12.0,0.,12.0
1981-08-30 15:49:54.020 ,4,0,0.,12.0,0.,12.0,0.,12.0,0.,12.0
1981-08-30 15:50:06.020 ,4,0,0.,12.0,0.,12.0,0.,12.0,0.,12.0
1981-08-30 15:50:18.020 ,4,0,0.,12.0,0.,12.0,0.,12.0,0.,12.0
1981-08-30 15:50:30.020 ,5,0,0.,12.0,0.,12.0,0.,12.0,0.,12.0
1981-08-30 15:50:42.020 ,5,0,0.,12.0,0.,12.0,0.,12.0,0.,12.0
1981-08-30 15:50:54.020 ,5,0,0.,12.0,0.,12.0,0.,12.0,0.,12.0
1981-08-30 15:51:06.020 ,5,0,0.,12.0,0.,12.0,0.,12.0,0.,12.0
1981-08-30 15:51:18.020 ,6,0,0.,12.0,0.,12.0,0.,12.0,0.,12.0
1981-08-30 15:51:30.020 ,6,0,0.,12.0,0.,12.0,0.,12.0,0.,12.0
1981-08-30 15:51:42.020 ,6,0,0.,12.0,0.,12.0,0.,12.0,0.,12.0
1981-08-30 15:51:54.020 ,6,0,0.,12.0,0.,12.0,0.,12.0,0.,12.0
1981-08-30 15:52:06.020 ,7,0,0.,12.0,0.,12.0,0.,12.0,0.,12.0
1981-08-30 15:52:18.020 ,7,0,0.,12.0,0.,12.0,0.,12.0,0.,12.0
1981-08-30 15:52:30.020 ,7,0,0.,12.0,0.,12.0,0.,12.0,0.,12.0
1981-08-30 15:52:42.020 ,7,0,0.,12.0,0.,12.0,0.,12.0,0.,12.0
1981-08-30 15:52:54.020 ,7,0,0.,12.0,0.,12.0,0.,12.0,0.,12.0
1981-08-30 15:53:06.020 ,7,0,0.,12.0,0.,12.0,0.,12.0,0.,12.0
1981-08-30 15:53:18.020 ,7,0,0.,12.0,0.,12.0,0.,12.0,0.,12.0
1981-08-30 15:53:30.020 ,7,0,0.,12.0,0.,12.0,0.,12.0,0.,12.0
1981-08-30 15:53:42.020 ,6,0,0.,12.0,0.,12.0,0.,12.0,0.,12.0
1981-08-30 15:53:54.020 ,6,0,0.,12.0,0.,12.0,0.,12.0,0.,12.0
1981-08-30 15:54:06.020 ,6,0,0.,12.0,0.,12.0,0.,12.0,0.,12.0
1981-08-30 15:54:18.020 ,6,0,0.,12.0,0.,12.0,0.,12.0,0.,12.0
1981-08-30 15:54:30.020 ,5,0,0.,12.0,0.,12.0,0.,12.0,0.,12.0
1981-08-30 15:54:42.020 ,5,0,0.,12.0,0.,12.0,0.,12.0,0.,12.0
1981-08-30 15:54:54.020 ,5,0,0.,12.0,0.,12.0,0.,12.0,0.,12.0
1981-08-30 15:55:06.020 ,5,0,0.,12.0,0.,12.0,0.,12.0,0.,12.0
1981-08-30 15:55:18.020 ,4,0,0.,12.0,0.,12.0,0.,12.0,0.,12.0
1981-08-30 15:55:30.020 ,4,0,0.,12.0,0.,12.0,0.,12.0,0.,12.0
1981-08-30 15:55:42.020 ,0,0,0.,12.0,0.,12.0,0.,12.0,0.,12.0
1981-08-30 15:55:54.020 ,0,0,0.,12.0,0.,12.0,0.,12.0,0.,12.0
1981-08-30 15:56:08.420 ,3,0,0.,12.0,0.,12.0,0.,12.0,0.,12.0
1981-08-30 15:56:20.420 ,3,0,0.,12.0,0.,12.0,0.,12.0,0.,12.0
1981-08-30 15:56:30.020 ,3,0,0.,12.0,0.,12.0,0.,12.0,0.,12.0
1981-08-30 15:56:42.020 ,3,0,0.,12.0,0.,12.0,0.,12.0,0.,12.0
1981-08-30 15:56:54.020 ,2,0,0.,12.0,0.,12.0,0.,12.0,0.,12.0
1981-08-30 15:57:06.020 ,2,0,0.,12.0,0.,12.0,0.,12.0,0.,12.0
1981-08-30 15:57:18.020 ,2,0,0.,12.0,0.,12.0,0.,12.0,0.,12.0
1981-08-30 15:57:30.020 ,2,0,0.,12.0,0.,12.0,0.,12.0,0.,12.0
1981-08-30 15:57:42.020 ,1,0,0.,12.0,0.,12.0,0.,12.0,0.,12.0
1981-08-30 15:57:54.020 ,1,0,0.,12.0,0.,12.0,0.,12.0,0.,12.0
1981-08-30 15:58:06.020 ,1,0,0.,12.0,0.,12.0,0.,12.0,0.,12.0
1981-08-30 15:58:18.020 ,1,0,0.,12.0,0.,12.0,0.,12.0,0.,12.0
1981-08-30 15:58:30.020 ,0,0,0.,12.0,0.,12.0,0.,12.0,0.,12.0
1981-08-30 15:58:42.020 ,0,0,0.,12.0,0.,12.0,0.,12.0,0.,12.0
1981-08-30 15:58:54.020 ,0,0,0.,12.0,0.,12.0,0.,12.0,0.,12.0
1981-08-30 15:59:06.020 ,0,0,0.,12.0,0.,12.0,0.,12.0,0.,12.0
1981-08-30 15:59:18.020 ,0,0,0.,12.0,0.,12.0,0.,12.0,0.,12.0
1981-08-30 15:59:30.020 ,0,0,0.,12.0,0.,12.0,0.,12.0,0.,12.0
1981-08-30 15:59:42.020 ,0,0,0.,12.0,0.,12.0,0.,12.0,0.,12.0
1981-08-30 15:59:54.020 ,0,0,0.,12.0,0.,12.0,0.,12.0,0.,12.0
1981-08-30 16:00:06.020 ,1,0,0.,12.0,0.,12.0,0.,12.0,0.,12.0
1981-08-30 16:00:18.020 ,1,0,0.,12.0,0.,12.0,0.,12.0,0.,12.0
1981-08-30 16:00:30.020 ,1,0,0.,12.0,0.,12.0,0.,12.0,0.,12.0
1981-08-30 16:00:42.020 ,1,0,0.,12.0,0.,12.0,0.,12.0,0.,12.0
1981-08-30 16:00:54.020 ,2,0,0.,12.0,0.,12.0,0.,12.0,0.,12.0
1981-08-30 16:01:06.020 ,2,0,0.,12.0,0.,12.0,0.,12.0,0.,12.0
1981-08-30 16:01:18.020 ,2,0,0.,12.0,0.,12.0,0.,12.0,0.,12.0
1981-08-30 16:01:30.020 ,2,0,0.,12.0,0.,12.0,0.,12.0,0.,12.0
1981-08-30 16:01:42.020 ,3,0,0.,12.0,0.,12.0,0.,12.0,0.,12.0
1981-08-30 16:01:54.020 ,3,0,0.,12.0,0.,12.0,0.,12.0,0.,12.0
1981-08-30 16:02:06.020 ,4,0,0.,12.0,0.,12.0,0.,12.0,0.,12.0
1981-08-30 16:02:18.020 ,4,0,0.,12.0,0.,12.0,0.,12.0,0.,12.0
1981-08-30 16:02:30.020 ,5,0,0.,12.0,0.,12.0,0.,12.0,0.,12.0
1981-08-30 16:02:42.020 ,5,0,0.,12.0,0.,12.0,0.,12.0,0.,12.0
1981-08-30 16:02:54.020 ,6,0,0.,12.0,0.,12.0,0.,12.0,0.,12.0
1981-08-30 16:03:06.020 ,6,0,0.,12.0,0.,12.0,0.,12.0,0.,12.0
1981-08-30 16:03:18.020 ,7,0,0.,12.0,0.,12.0,0.,12.0,0.,12.0
1981-08-30 16:03:30.020 ,7,0,0.,12.0,0.,12.0,0.,12.0,0.,12.0
1981-08-30 16:03:42.020 ,7,0,0.,12.0,0.,12.0,0.,12.0,0.,12.0
1981-08-30 16:03:54.020 ,7,0,0.,12.0,0.,12.0,0.,12.0,0.,12.0
1981-08-30 16:04:06.020 ,6,0,0.,12.0,0.,12.0,0.,12.0,0.,12.0
1981-08-30 16:04:18.020 ,6,0,0.,12.0,0.,12.0,0.,12.0,0.,12.0
1981-08-30 16:04:30.020 ,5,0,0.,12.0,0.,12.0,0.,12.0,0.,12.0
1981-08-30 16:04:42.020 ,5,0,0.,12.0,0.,12.0,0.,12.0,0.,12.0
1981-08-30 16:04:54.020 ,4,0,0.,12.0,0.,12.0,0.,12.0,0.,12.0
1981-08-30 16:05:06.020 ,4,0,0.,12.0,0.,12.0,0.,12.0,0.,12.0
1981-08-30 16:05:18.020 ,3,0,0.,12.0,0.,12.0,0.,12.0,0.,12.0
1981-08-30 16:05:30.020 ,3,0,0.,12.0,0.,12.0,0.,12.0,0.,12.0
1981-08-30 16:05:42.020 ,2,0,0.,12.0,0.,12.0,0.,12.0,0.,12.0
1981-08-30 16:05:54.020 ,2,0,0.,12.0,0.,12.0,0.,12.0,0.,12.0
1981-08-30 16:06:06.020 ,1,0,0.,12.0,0.,12.0,0.,12.0,0.,12.0
1981-08-30 16:06:18.020 ,1,0,0.,12.0,0.,12.0,0.,12.0,0.,12.0
1981-08-30 16:06:30.020 ,0,0,0.,12.0,0.,12.0,0.,12.0,0.,12.0
1981-08-30 16:06:42.020 ,0,0,0.,12.0,0.,12.0,0.,12.0,0.,12.0
1981-08-30 16:06:54.020 ,0,0,0.,12.0,0.,12.0,0.,12.0,0.,12.0
1981-08-30 16:07:06.020 ,0,0,0.,12.0,0.,12.0,0.,12.0,0.,12.0
1981-08-30 16:07:18.020 ,1,0,0.,12.0,0.,12.0,0.,12.0,0.,12.0
1981-08-30 16:07:30.020 ,1,0,0.,12.0,0.,12.0,0.,12.0,0.,12.0
1981-08-30 16:07:42.020 ,2,0,0.,12.0,0.,12.0,0.,12.0,0.,12.0
1981-08-30 16:07:54.020 ,2,0,0.,12.0,0.,12.0,0.,12.0,0.,12.0
1981-08-30 16:08:06.020 ,3,0,0.,12.0,0.,12.0,0.,12.0,0.,12.0
1981-08-30 16:08:18.020 ,3,0,0.,12.0,0.,12.0,0.,12.0,0.,12.0
1981-08-30 16:08:30.020 ,3,0,0.,12.0,0.,12.0,0.,12.0,0.,12.0
1981-08-30 16:08:42.020 ,3,0,0.,12.0,0.,12.0,0.,12.0,0.,12.0
1981-08-30 16:08:54.020 ,4,0,0.,12.0,0.,12.0,0.,12.0,0.,12.0
1981-08-30 16:09:06.020 ,4,0,0.,12.0,0.,12.0,0.,12.0,0.,12.0
1981-08-30 16:09:18.020 ,4,0,0.,12.0,0.,12.0,0.,12.0,0.,12.0
1981-08-30 16:09:30.020 ,4,0,0.,12.0,0.,12.0,0.,12.0,0.,12.0
1981-08-30 16:09:42.020 ,5,0,0.,12.0,0.,12.0,0.,12.0,0.,12.0
1981-08-30 16:09:54.020 ,5,0,0.,12.0,0.,12.0,0.,12.0,0.,12.0
1981-08-30 16:10:06.020 ,5,0,0.,12.0,0.,12.0,0.,12.0,0.,12.0
1981-08-30 16:10:18.020 ,5,0,0.,12.0,0.,12.0,0.,12.0,0.,12.0
1981-08-30 16:10:30.020 ,6,0,0.,12.0,0.,12.0,0.,12.0,0.,12.0
1981-08-30 16:10:42.020 ,6,0,0.,12.0,0.,12.0,0.,12.0,0.,12.0
1981-08-30 16:10:54.020 ,6,0,0.,12.0,0.,12.0,0.,12.0,0.,12.0
1981-08-30 16:11:06.020 ,6,0,0.,12.0,0.,12.0,0.,12.0,0.,12.0
1981-08-30 16:11:18.020 ,7,0,0.,12.0,0.,12.0,0.,12.0,0.,12.0
1981-08-30 16:11:30.020 ,7,0,0.,12.0,0.,12.0,0.,12.0,0.,12.0
1981-08-30 16:11:42.020 ,7,0,0.,12.0,0.,12.0,0.,12.0,0.,12.0
1981-08-30 16:11:54.020 ,7,0,0.,12.0,0.,12.0,0.,12.0,0.,12.0
1981-08-30 16:12:06.020 ,7,0,0.,12.0,0.,12.0,0.,12.0,0.,12.0
1981-08-30 16:12:18.020 ,7,0,0.,12.0,0.,12.0,0.,12.0,0.,12.0
1981-08-30 16:12:30.020 ,7,0,0.,12.0,0.,12.0,0.,12.0,0.,12.0
1981-08-30 16:12:42.020 ,7,0,0.,12.0,0.,12.0,0.,12.0,0.,12.0
1981-08-30 16:12:54.020 ,6,0,0.,12.0,0.,12.0,0.,12.0,0.,12.0
1981-08-30 16:13:06.020 ,6,0,0.,12.0,0.,12.0,0.,12.0,0.,12.0
1981-08-30 16:13:18.020 ,6,0,0.,12.0,0.,12.0,0.,12.0,0.,12.0
1981-08-30 16:13:30.020 ,6,0,0.,12.0,0.,12.0,0.,12.0,0.,12.0
1981-08-30 16:13:42.020 ,5,0,0.,12.0,0.,12.0,0.,12.0,0.,12.0
1981-08-30 16:13:54.020 ,5,0,0.,12.0,0.,12.0,0.,12.0,0.,12.0
1981-08-30 16:14:06.020 ,5,0,0.,12.0,0.,12.0,0.,12.0,0.,12.0
1981-08-30 16:14:18.020 ,5,0,0.,12.0,0.,12.0,0.,12.0,0.,12.0
1981-08-30 16:14:30.020 ,4,0,0.,12.0,0.,12.0,0.,12.0,0.,12.0
1981-08-30 16:14:42.020 ,4,0,0.,12.0,0.,12.0,0.,12.0,0.,12.0
1981-08-30 16:14:54.020 ,4,0,0.,12.0,0.,12.0,0.,12.0,0.,12.0
1981-08-30 16:15:06.020 ,4,0,0.,12.0,0.,12.0,0.,12.0,0.,12.0
1981-08-30 16:15:18.020 ,3,0,0.,12.0,0.,12.0,0.,12.0,0.,12.0
1981-08-30 16:15:30.020 ,3,0,0.,12.0,0.,12.0,0.,12.0,0.,12.0
1981-08-30 16:15:42.020 ,3,0,0.,12.0,0.,12.0,0.,12.0,0.,12.0
1981-08-30 16:15:54.020 ,3,0,0.,12.0,0.,12.0,0.,12.0,0.,12.0
1981-08-30 16:16:06.020 ,2,0,0.,12.0,0.,12.0,0.,12.0,0.,12.0
1981-08-30 16:16:18.020 ,2,0,0.,12.0,0.,12.0,0.,12.0,0.,12.0
1981-08-30 16:16:30.020 ,2,0,0.,12.0,0.,12.0,0.,12.0,0.,12.0
1981-08-30 16:16:42.020 ,2,0,0.,12.0,0.,12.0,0.,12.0,0.,12.0
1981-08-30 16:16:54.020 ,1,0,0.,12.0,0.,12.0,0.,12.0,0.,12.0
1981-08-30 16:17:06.020 ,1,0,0.,12.0,0.,12.0,0.,12.0,0.,12.0
1981-08-30 16:17:18.020 ,1,0,0.,12.0,0.,12.0,0.,12.0,0.,12.0
1981-08-30 16:17:30.020 ,1,0,0.,12.0,0.,12.0,0.,12.0,0.,12.0